| time (UTC) | temp C | wind direction | speed KPH | gust KPH | rain 1hr cm | rain 24hr cm | rain mn cm | humidity % | barometer mb |
| 20260505184125 | 25 | 264 | 8.0 | 16.1 | 0.00 | 0.00 | 0.00 | 41 | 1004.0 |
| 20260505184122 | 26 | 195 | 4.8 | 12.9 | 0.00 | 0.00 | 0.00 | 43 | 1005.5 |
| 20260505183622 | 25 | 184 | 8.0 | 24.1 | 0.00 | 0.00 | 0.00 | 41 | 1003.7 |
| 20260505183220 | 27 | 127 | 3.2 | 8.0 | 0.00 | 0.00 | 0.00 | 43 | 1005.5 |
| 20260505183119 | 25 | 234 | 9.7 | 24.1 | 0.00 | 0.00 | 0.00 | 41 | 1003.9 |
| 20260505182615 | 25 | 272 | 9.7 | 12.9 | 0.00 | 0.00 | 0.00 | 40 | 1003.8 |
| 20260505182220 | 27 | 137 | 4.8 | 16.1 | 0.00 | 0.00 | 0.00 | 43 | 1005.5 |
| 20260505182112 | 25 | 214 | 12.9 | 14.5 | 0.00 | 0.00 | 0.00 | 41 | 1003.9 |
| 20260505181609 | 25 | 225 | 9.7 | 22.5 | 0.00 | 0.00 | 0.00 | 40 | 1004.1 |
| 20260505181221 | 26 | 188 | 4.8 | 12.9 | 0.00 | 0.00 | 0.00 | 42 | 1005.8 |
| 20260505181106 | 25 | 304 | 11.3 | 25.7 | 0.00 | 0.00 | 0.00 | 42 | 1004.2 |
| 20260505180602 | 25 | 114 | 6.4 | 20.9 | 0.00 | 0.00 | 0.00 | 42 | 1004.2 |
| 20260505180221 | 26 | 290 | 8.0 | 20.9 | 0.00 | 0.00 | 0.00 | 43 | 1006.2 |
| 20260505180100 | 24 | 69 | 9.7 | 24.1 | 0.00 | 0.00 | 0.00 | 43 | 1004.4 |
| 20260505175555 | 24 | 280 | 17.7 | 24.1 | 0.00 | 0.00 | 0.00 | 41 | 1004.7 |
| 20260505175220 | 26 | 201 | 6.4 | 19.3 | 0.00 | 0.00 | 0.00 | 42 | 1006.2 |
| 20260505175052 | 25 | 233 | 11.3 | 37.0 | 0.00 | 0.00 | 0.00 | 41 | 1004.4 |
| 20260505174549 | 25 | 248 | 24.1 | 29.0 | 0.00 | 0.00 | 0.00 | 41 | 1004.5 |
| 20260505174220 | 27 | 241 | 3.2 | 8.0 | 0.00 | 0.00 | 0.00 | 44 | 1006.2 |
| 20260505174045 | 25 | 264 | 14.5 | 29.0 | 0.00 | 0.00 | 0.00 | 41 | 1004.7 |
| 20260505173542 | 25 | 228 | 14.5 | 22.5 | 0.00 | 0.00 | 0.00 | 42 | 1004.9 |
| 20260505173222 | 27 | 168 | 1.6 | 4.8 | 0.00 | 0.00 | 0.00 | 44 | 1006.2 |
| 20260505173039 | 25 | 266 | 12.9 | 22.5 | 0.00 | 0.00 | 0.00 | 41 | 1004.6 |
| 20260505172537 | 25 | 215 | 20.9 | 24.1 | 0.00 | 0.00 | 0.00 | 41 | 1004.5 |
| 20260505172220 | 26 | 199 | 1.6 | 4.8 | 0.00 | 0.00 | 0.00 | 44 | 1006.2 |
| 20260505172033 | 25 | 268 | 9.7 | 22.5 | 0.00 | 0.00 | 0.00 | 40 | 1004.7 |
| 20260505171528 | 25 | 205 | 8.0 | 14.5 | 0.00 | 0.00 | 0.00 | 40 | 1004.8 |
| 20260505171120 | 27 | 188 | 1.6 | 6.4 | 0.00 | 0.00 | 0.00 | 42 | 1006.2 |
| 20260505171025 | 25 | 246 | 14.5 | 24.1 | 0.00 | 0.00 | 0.00 | 40 | 1004.8 |
| 20260505170522 | 25 | 251 | 22.5 | 25.7 | 0.00 | 0.00 | 0.00 | 40 | 1005.0 |
| 20260505170122 | 27 | 193 | 4.8 | 9.7 | 0.00 | 0.00 | 0.00 | 42 | 1006.5 |
| 20260505170018 | 25 | 164 | 11.3 | 27.4 | 0.00 | 0.00 | 0.00 | 41 | 1004.7 |
| 20260505165513 | 25 | 265 | 14.5 | 24.1 | 0.00 | 0.00 | 0.00 | 40 | 1005.1 |
| 20260505165121 | 26 | 237 | 4.8 | 12.9 | 0.00 | 0.00 | 0.00 | 43 | 1006.5 |
| 20260505165009 | 25 | 257 | 6.4 | 29.0 | 0.00 | 0.00 | 0.00 | 40 | 1005.2 |
| 20260505164505 | 25 | 273 | 12.9 | 20.9 | 0.00 | 0.00 | 0.00 | 40 | 1004.8 |
| 20260505164122 | 26 | 157 | 4.8 | 9.7 | 0.00 | 0.00 | 0.00 | 44 | 1006.8 |
| 20260505164004 | 24 | 254 | 9.7 | 22.5 | 0.00 | 0.00 | 0.00 | 42 | 1005.0 |
| 20260505163502 | 23 | 266 | 11.3 | 24.1 | 0.00 | 0.00 | 0.00 | 42 | 1005.4 |
| 20260505163221 | 26 | 229 | 1.6 | 4.8 | 0.00 | 0.00 | 0.00 | 43 | 1007.2 |
| 20260505163002 | 23 | 250 | 14.5 | 25.7 | 0.00 | 0.00 | 0.00 | 42 | 1005.2 |
| 20260505162456 | 25 | 253 | 11.3 | 19.3 | 0.00 | 0.00 | 0.00 | 40 | 1005.5 |
| 20260505162222 | 26 | 202 | 8.0 | 16.1 | 0.00 | 0.00 | 0.00 | 42 | 1007.2 |
| 20260505161953 | 25 | 261 | 6.4 | 14.5 | 0.00 | 0.00 | 0.00 | 42 | 1005.6 |
| 20260505161450 | 24 | 322 | 9.7 | 17.7 | 0.00 | 0.00 | 0.00 | 41 | 1005.6 |
| 20260505161236 | 26 | 130 | 3.2 | 6.4 | 0.00 | 0.00 | 0.00 | 42 | 1007.5 |
| 20260505160948 | 24 | 243 | 11.3 | 12.9 | 0.00 | 0.00 | 0.00 | 41 | 1005.7 |
| 20260505160446 | 23 | 235 | 4.8 | 24.1 | 0.00 | 0.00 | 0.00 | 43 | 1006.0 |
| 20260505160322 | 26 | 320 | 3.2 | 8.0 | 0.00 | 0.00 | 0.00 | 42 | 1007.5 |
| 20260505153322 | 25 | 221 | 3.2 | 11.3 | 0.00 | 0.00 | 0.00 | 44 | 1007.9 |
| 20260505152922 | 24 | 234 | 6.4 | 16.1 | 0.00 | 0.00 | 0.00 | 41 | 1006.1 |
| 20260505152419 | 23 | 284 | 3.2 | 9.7 | 0.00 | 0.00 | 0.00 | 41 | 1006.1 |
| 20260505151919 | 23 | 248 | 11.3 | 14.5 | 0.00 | 0.00 | 0.00 | 41 | 1006.3 |
| 20260505151415 | 23 | 272 | 4.8 | 16.1 | 0.00 | 0.00 | 0.00 | 41 | 1006.3 |
| 20260505151323 | 25 | 170 | 3.2 | 11.3 | 0.00 | 0.00 | 0.00 | 45 | 1007.9 |
| 20260505150913 | 23 | 131 | 9.7 | 16.1 | 0.00 | 0.00 | 0.00 | 41 | 1006.4 |
| 20260505150405 | 23 | 324 | 4.8 | 9.7 | 0.00 | 0.00 | 0.00 | 43 | 1006.2 |
| 20260505150322 | 25 | 191 | 4.8 | 8.0 | 0.00 | 0.00 | 0.00 | 45 | 1008.2 |
| 20260505140334 | 21 | 205 | 3.2 | 8.0 | 0.00 | 0.00 | 0.00 | 43 | 1006.3 |
| 20260505130258 | 20 | 172 | 4.8 | 11.3 | 0.00 | 0.00 | 0.00 | 44 | 1006.8 |
| 20260505124748 | 20 | 294 | 6.4 | 11.3 | 0.00 | 0.00 | 0.00 | 46 | 1007.2 |
| 20260505124420 | 20 | 196 | 3.2 | 6.4 | 0.00 | 0.00 | 0.00 | 57 | 1008.9 |
| 20260505124245 | 20 | 275 | 6.4 | 8.0 | 0.00 | 0.00 | 0.00 | 46 | 1006.9 |
| 20260505123740 | 20 | 228 | 3.2 | 12.9 | 0.00 | 0.00 | 0.00 | 46 | 1007.1 |
| 20260505123519 | 20 | 157 | 0.0 | 3.2 | 0.00 | 0.00 | 0.00 | 58 | 1008.9 |
| 20260505123237 | 19 | 247 | 6.4 | 12.9 | 0.00 | 0.00 | 0.00 | 47 | 1007.0 |
| 20260505122734 | 19 | 256 | 4.8 | 9.7 | 0.00 | 0.00 | 0.00 | 47 | 1007.1 |
| 20260505122231 | 18 | 234 | 4.8 | 12.9 | 0.00 | 0.00 | 0.00 | 47 | 1006.9 |
| 20260505121728 | 18 | 284 | 6.4 | 8.0 | 0.00 | 0.00 | 0.00 | 48 | 1007.0 |
| 20260505121519 | 18 | 112 | 0.0 | 1.6 | 0.00 | 0.00 | 0.00 | 68 | 1008.9 |
| 20260505121224 | 18 | 298 | 9.7 | 11.3 | 0.00 | 0.00 | 0.00 | 48 | 1007.2 |
| 20260505120721 | 18 | 272 | 6.4 | 17.7 | 0.00 | 0.00 | 0.00 | 48 | 1007.0 |
| 20260505120422 | 17 | 196 | 0.0 | 3.2 | 0.00 | 0.00 | 0.00 | 74 | 1009.3 |
| 20260505120217 | 18 | 258 | 3.2 | 9.7 | 0.00 | 0.00 | 0.00 | 49 | 1007.3 |
| 20260505115715 | 18 | 227 | 3.2 | 19.3 | 0.00 | 0.00 | 0.00 | 48 | 1007.1 |
| 20260505115522 | 16 | 76 | 0.0 | 4.8 | 0.00 | 0.00 | 0.00 | 83 | 1009.6 |
| 20260505115214 | 17 | 281 | 6.4 | 9.7 | 0.00 | 0.00 | 0.00 | 50 | 1007.3 |
| 20260505114711 | 17 | 218 | 4.8 | 11.3 | 0.00 | 0.00 | 0.00 | 51 | 1007.2 |
| 20260505114620 | 14 | 163 | 1.6 | 4.8 | 0.00 | 0.00 | 0.00 | 88 | 1009.6 |
| 20260505114521 | 14 | 159 | 0.0 | 3.2 | 0.00 | 0.00 | 0.00 | 89 | 1009.6 |
| 20260505114206 | 17 | 326 | 1.6 | 8.0 | 0.00 | 0.00 | 0.00 | 53 | 1007.5 |
| 20260505113703 | 16 | 188 | 9.7 | 14.5 | 0.00 | 0.00 | 0.00 | 52 | 1007.6 |
| 20260505113620 | 12 | 180 | 0.0 | 1.6 | 0.00 | 0.00 | 0.00 | 92 | 1009.6 |
| 20260505113200 | 16 | 257 | 3.2 | 4.8 | 0.00 | 0.00 | 0.00 | 54 | 1007.3 |
| 20260505112656 | 16 | 138 | 3.2 | 6.4 | 0.00 | 0.00 | 0.00 | 54 | 1007.3 |
| 20260505112622 | 10 | 22 | 0.0 | 0.0 | 0.00 | 0.00 | 0.00 | 93 | 1009.6 |
| 20260505112154 | 16 | 255 | 3.2 | 8.0 | 0.00 | 0.00 | 0.00 | 54 | 1007.3 |
| 20260505111721 | 9 | 341 | 1.6 | 6.4 | 0.00 | 0.00 | 0.00 | 93 | 1009.3 |
| 20260505111653 | 16 | 302 | 0.0 | 8.0 | 0.00 | 0.00 | 0.00 | 54 | 1007.3 |
| 20260505111149 | 16 | 211 | 6.4 | 9.7 | 0.00 | 0.00 | 0.00 | 53 | 1007.1 |
| 20260505110820 | 7 | 337 | 0.0 | 0.0 | 0.00 | 0.00 | 0.00 | 93 | 1008.9 |
| 20260505110646 | 16 | 284 | 4.8 | 14.5 | 0.00 | 0.00 | 0.00 | 53 | 1006.9 |
| 20260505110143 | 16 | 232 | 8.0 | 19.3 | 0.00 | 0.00 | 0.00 | 52 | 1006.9 |
| 20260505102119 | 14 | 241 | 6.4 | 12.9 | 0.00 | 0.00 | 0.00 | 58 | 1007.1 |
| 20260505102019 | 5 | 22 | 0.0 | 0.0 | 0.00 | 0.00 | 0.00 | 94 | 1008.9 |
| 20260505101618 | 14 | 244 | 9.7 | 16.1 | 0.00 | 0.00 | 0.00 | 57 | 1007.2 |
| 20260505101113 | 14 | 277 | 6.4 | 9.7 | 0.00 | 0.00 | 0.00 | 59 | 1007.1 |
| 20260505100610 | 14 | 226 | 8.0 | 12.9 | 0.00 | 0.00 | 0.00 | 58 | 1007.2 |
| 20260505100107 | 13 | 267 | 6.4 | 9.7 | 0.00 | 0.00 | 0.00 | 59 | 1007.0 |
| 20260505100023 | 5 | 348 | 0.0 | 4.8 | 0.00 | 0.00 | 0.00 | 94 | 1008.9 |
| 20260505095603 | 13 | 225 | 3.2 | 12.9 | 0.00 | 0.00 | 0.00 | 60 | 1007.1 |
| 20260505095100 | 13 | 258 | 6.4 | 17.7 | 0.00 | 0.00 | 0.00 | 60 | 1007.2 |
| 20260505094556 | 13 | 248 | 6.4 | 9.7 | 0.00 | 0.00 | 0.00 | 61 | 1007.2 |
| 20260505094052 | 13 | 273 | 3.2 | 4.8 | 0.00 | 0.00 | 0.00 | 62 | 1007.3 |
| 20260505094037 | 5 | 247 | 0.0 | 0.0 | 0.00 | 0.00 | 0.00 | 94 | 1008.6 |
| 20260505093549 | 13 | 239 | 4.8 | 6.4 | 0.00 | 0.00 | 0.00 | 61 | 1007.2 |
| 20260505093046 | 13 | 248 | 3.2 | 6.4 | 0.00 | 0.00 | 0.00 | 61 | 1006.9 |
| 20260505093021 | 5 | 247 | 0.0 | 0.0 | 0.00 | 0.00 | 0.00 | 93 | 1008.6 |
| 20260505092544 | 13 | 238 | 9.7 | 9.7 | 0.00 | 0.00 | 0.00 | 61 | 1006.9 |
| 20260505092042 | 13 | 262 | 1.6 | 8.0 | 0.00 | 0.00 | 0.00 | 60 | 1006.9 |
| 20260505092022 | 4 | 248 | 0.0 | 1.6 | 0.00 | 0.00 | 0.00 | 93 | 1008.6 |
| 20260505091538 | 13 | 243 | 11.3 | 11.3 | 0.00 | 0.00 | 0.00 | 60 | 1007.2 |
| 20260505091037 | 13 | 261 | 9.7 | 9.7 | 0.00 | 0.00 | 0.00 | 60 | 1007.1 |
| 20260505091021 | 4 | 22 | 0.0 | 3.2 | 0.00 | 0.00 | 0.00 | 93 | 1008.6 |
| 20260505090534 | 13 | 260 | 6.4 | 12.9 | 0.00 | 0.00 | 0.00 | 59 | 1007.1 |
| 20260505090032 | 13 | 232 | 6.4 | 14.5 | 0.00 | 0.00 | 0.00 | 59 | 1006.9 |
| 20260505085530 | 13 | 182 | 11.3 | 16.1 | 0.00 | 0.00 | 0.00 | 59 | 1007.1 |
| 20260505085028 | 13 | 247 | 3.2 | 9.7 | 0.00 | 0.00 | 0.00 | 59 | 1007.1 |
| 20260505085021 | 3 | 22 | 0.0 | 0.0 | 0.00 | 0.00 | 0.00 | 93 | 1008.8 |
| 20260505084526 | 13 | 278 | 4.8 | 14.5 | 0.00 | 0.00 | 0.00 | 59 | 1007.1 |
| 20260505084119 | 3 | 22 | 0.0 | 0.0 | 0.00 | 0.00 | 0.00 | 93 | 1008.9 |
| 20260505084023 | 13 | 188 | 9.7 | 11.3 | 0.00 | 0.00 | 0.00 | 58 | 1007.0 |
| 20260505083520 | 13 | 253 | 8.0 | 19.3 | 0.00 | 0.00 | 0.00 | 58 | 1007.2 |
| 20260505083121 | 3 | 22 | 0.0 | 3.2 | 0.00 | 0.00 | 0.00 | 93 | 1008.9 |
| 20260505083017 | 13 | 241 | 9.7 | 19.3 | 0.00 | 0.00 | 0.00 | 58 | 1007.3 |
| 20260505082512 | 13 | 228 | 6.4 | 25.7 | 0.00 | 0.00 | 0.00 | 58 | 1007.0 |
| 20260505082221 | 3 | 22 | 0.0 | 3.2 | 0.00 | 0.00 | 0.00 | 93 | 1008.9 |
| 20260505082009 | 13 | 267 | 6.4 | 9.7 | 0.00 | 0.00 | 0.00 | 59 | 1007.2 |
| 20260505081506 | 13 | 223 | 6.4 | 14.5 | 0.00 | 0.00 | 0.00 | 58 | 1007.2 |
| 20260505081222 | 3 | 292 | 0.0 | 0.0 | 0.00 | 0.00 | 0.00 | 93 | 1008.9 |
| 20260505081003 | 14 | 291 | 12.9 | 14.5 | 0.00 | 0.00 | 0.00 | 58 | 1007.5 |
| 20260505080459 | 13 | 236 | 9.7 | 17.7 | 0.00 | 0.00 | 0.00 | 58 | 1007.3 |
| 20260505080319 | 3 | 292 | 0.0 | 0.0 | 0.00 | 0.00 | 0.00 | 93 | 1008.9 |
| 20260505075955 | 13 | 253 | 6.4 | 9.7 | 0.00 | 0.00 | 0.00 | 59 | 1007.2 |
| 20260505075451 | 13 | 268 | 4.8 | 8.0 | 0.00 | 0.00 | 0.00 | 60 | 1007.3 |
| 20260505075321 | 2 | 292 | 0.0 | 0.0 | 0.00 | 0.00 | 0.00 | 92 | 1008.9 |
| 20260505074949 | 13 | 231 | 8.0 | 12.9 | 0.00 | 0.00 | 0.00 | 59 | 1007.3 |
| 20260505074446 | 13 | 253 | 9.7 | 9.7 | 0.00 | 0.00 | 0.00 | 59 | 1007.3 |
| 20260505074321 | 2 | 292 | 0.0 | 0.0 | 0.00 | 0.00 | 0.00 | 92 | 1008.9 |
| 20260505073943 | 13 | 250 | 4.8 | 14.5 | 0.00 | 0.00 | 0.00 | 59 | 1007.2 |
| 20260505073441 | 13 | 266 | 9.7 | 9.7 | 0.00 | 0.00 | 0.00 | 61 | 1007.1 |
| 20260505073322 | 3 | 292 | 0.0 | 0.0 | 0.00 | 0.00 | 0.00 | 93 | 1008.9 |
| 20260505072938 | 13 | 284 | 4.8 | 11.3 | 0.00 | 0.00 | 0.00 | 60 | 1007.2 |
| 20260505072434 | 13 | 265 | 3.2 | 11.3 | 0.00 | 0.00 | 0.00 | 61 | 1007.3 |
| 20260505072420 | 3 | 292 | 0.0 | 0.0 | 0.00 | 0.00 | 0.00 | 93 | 1008.9 |
| 20260505071930 | 13 | 233 | 6.4 | 14.5 | 0.00 | 0.00 | 0.00 | 60 | 1007.1 |
| 20260505071519 | 2 | 292 | 0.0 | 0.0 | 0.00 | 0.00 | 0.00 | 92 | 1008.9 |
| 20260505071426 | 13 | 257 | 3.2 | 12.9 | 0.00 | 0.00 | 0.00 | 61 | 1007.2 |
| 20260505070925 | 13 | 258 | 6.4 | 14.5 | 0.00 | 0.00 | 0.00 | 61 | 1007.2 |
| 20260505070522 | 3 | 292 | 0.0 | 0.0 | 0.00 | 0.00 | 0.00 | 93 | 1008.9 |
| 20260505070421 | 13 | 252 | 8.0 | 14.5 | 0.00 | 0.00 | 0.00 | 61 | 1007.2 |
| 20260505065916 | 13 | 256 | 6.4 | 12.9 | 0.00 | 0.00 | 0.00 | 62 | 1007.0 |
| 20260505065520 | 3 | 292 | 0.0 | 0.0 | 0.00 | 0.00 | 0.00 | 93 | 1008.9 |
| 20260505065413 | 13 | 259 | 4.8 | 9.7 | 0.00 | 0.00 | 0.00 | 63 | 1007.1 |
| 20260505064910 | 13 | 272 | 3.2 | 6.4 | 0.00 | 0.00 | 0.00 | 63 | 1007.2 |
| 20260505064407 | 12 | 237 | 6.4 | 11.3 | 0.00 | 0.00 | 0.00 | 64 | 1007.2 |
| 20260505063906 | 12 | 246 | 6.4 | 12.9 | 0.00 | 0.00 | 0.00 | 63 | 1007.2 |
| 20260505063521 | 3 | 292 | 0.0 | 0.0 | 0.00 | 0.00 | 0.00 | 92 | 1008.9 |
| 20260505063402 | 12 | 227 | 3.2 | 14.5 | 0.00 | 0.00 | 0.00 | 64 | 1007.2 |
| 20260505062858 | 12 | 268 | 6.4 | 14.5 | 0.00 | 0.00 | 0.00 | 66 | 1007.1 |
| 20260505062520 | 3 | 292 | 0.0 | 0.0 | 0.00 | 0.00 | 0.00 | 92 | 1008.9 |
| 20260505062355 | 11 | 280 | 4.8 | 8.0 | 0.00 | 0.00 | 0.00 | 68 | 1007.3 |
| 20260505061852 | 11 | 256 | 6.4 | 12.9 | 0.00 | 0.00 | 0.00 | 69 | 1007.0 |
| 20260505061522 | 3 | 292 | 0.0 | 0.0 | 0.00 | 0.00 | 0.00 | 93 | 1008.9 |
| 20260505061351 | 11 | 256 | 3.2 | 6.4 | 0.00 | 0.00 | 0.00 | 71 | 1007.2 |
| 20260505060848 | 10 | 245 | 1.6 | 4.8 | 0.00 | 0.00 | 0.00 | 74 | 1007.0 |
| 20260505060344 | 10 | 174 | 1.6 | 3.2 | 0.00 | 0.00 | 0.00 | 76 | 1007.2 |
| 20260505055840 | 10 | 256 | 0.0 | 3.2 | 0.00 | 0.00 | 0.00 | 77 | 1007.1 |
| 20260505055620 | 3 | 292 | 0.0 | 0.0 | 0.00 | 0.00 | 0.00 | 92 | 1008.9 |
| 20260505055336 | 10 | 135 | 0.0 | 4.8 | 0.00 | 0.00 | 0.00 | 76 | 1007.1 |
| 20260505054834 | 9 | 290 | 3.2 | 3.2 | 0.00 | 0.00 | 0.00 | 78 | 1006.9 |
| 20260505054621 | 3 | 292 | 0.0 | 0.0 | 0.00 | 0.00 | 0.00 | 93 | 1008.9 |
| 20260505054331 | 8 | 66 | 0.0 | 3.2 | 0.00 | 0.00 | 0.00 | 81 | 1007.2 |
| 20260505053829 | 7 | 76 | 0.0 | 1.6 | 0.00 | 0.00 | 0.00 | 86 | 1007.1 |
| 20260505053621 | 4 | 292 | 0.0 | 0.0 | 0.00 | 0.00 | 0.00 | 93 | 1008.9 |
| 20260505053326 | 7 | 86 | 1.6 | 3.2 | 0.00 | 0.00 | 0.00 | 86 | 1007.1 |
| 20260505052822 | 7 | 66 | 0.0 | 3.2 | 0.00 | 0.00 | 0.00 | 86 | 1007.2 |
| 20260505052620 | 4 | 292 | 0.0 | 0.0 | 0.00 | 0.00 | 0.00 | 93 | 1008.9 |
| 20260505052319 | 7 | 89 | 3.2 | 3.2 | 0.00 | 0.00 | 0.00 | 87 | 1007.0 |
| 20260505051817 | 7 | 105 | 1.6 | 3.2 | 0.00 | 0.00 | 0.00 | 87 | 1007.0 |
| 20260505051621 | 5 | 292 | 0.0 | 0.0 | 0.00 | 0.00 | 0.00 | 93 | 1008.9 |
| 20260505051314 | 7 | 99 | 3.2 | 3.2 | 0.00 | 0.00 | 0.00 | 86 | 1007.0 |
| 20260505050812 | 7 | 76 | 0.0 | 4.8 | 0.00 | 0.00 | 0.00 | 84 | 1007.1 |
| 20260505050310 | 8 | 100 | 3.2 | 3.2 | 0.00 | 0.00 | 0.00 | 82 | 1007.1 |
| 20260505041740 | 8 | 85 | 1.6 | 3.2 | 0.00 | 0.00 | 0.00 | 80 | 1006.9 |
| 20260505041620 | 5 | 292 | 0.0 | 0.0 | 0.00 | 0.00 | 0.00 | 92 | 1008.6 |
| 20260505041237 | 9 | 87 | 0.0 | 3.2 | 0.00 | 0.00 | 0.00 | 79 | 1006.9 |
| 20260505040734 | 9 | 116 | 0.0 | 3.2 | 0.00 | 0.00 | 0.00 | 79 | 1007.0 |
| 20260505040232 | 8 | 299 | 0.0 | 3.2 | 0.00 | 0.00 | 0.00 | 81 | 1006.9 |
| 20260505035729 | 8 | 245 | 0.0 | 3.2 | 0.00 | 0.00 | 0.00 | 83 | 1006.6 |
| 20260505035624 | 5 | 292 | 0.0 | 0.0 | 0.00 | 0.00 | 0.00 | 92 | 1008.6 |
| 20260505035224 | 8 | 112 | 1.6 | 3.2 | 0.00 | 0.00 | 0.00 | 86 | 1006.7 |
| 20260505034722 | 7 | 115 | 0.0 | 3.2 | 0.00 | 0.00 | 0.00 | 89 | 1006.8 |
| 20260505034624 | 6 | 292 | 0.0 | 0.0 | 0.00 | 0.00 | 0.00 | 92 | 1008.6 |
| 20260505034218 | 7 | 269 | 0.0 | 0.0 | 0.00 | 0.00 | 0.00 | 88 | 1006.8 |
| 20260505033715 | 7 | 92 | 3.2 | 3.2 | 0.00 | 0.00 | 0.00 | 87 | 1006.7 |
| 20260505033625 | 6 | 292 | 0.0 | 0.0 | 0.00 | 0.00 | 0.00 | 92 | 1008.6 |
| 20260505033213 | 8 | 128 | 3.2 | 3.2 | 0.00 | 0.00 | 0.00 | 87 | 1006.8 |
| 20260505032711 | 8 | 82 | 3.2 | 3.2 | 0.00 | 0.00 | 0.00 | 87 | 1006.8 |
| 20260505032623 | 6 | 292 | 0.0 | 0.0 | 0.00 | 0.00 | 0.00 | 92 | 1008.6 |
| 20260505032206 | 8 | 78 | 3.2 | 3.2 | 0.00 | 0.00 | 0.00 | 86 | 1006.9 |
| 20260505031704 | 8 | 87 | 3.2 | 3.2 | 0.00 | 0.00 | 0.00 | 87 | 1006.7 |
| 20260505031621 | 6 | 292 | 0.0 | 0.0 | 0.00 | 0.00 | 0.00 | 91 | 1008.8 |
| 20260505031200 | 7 | 92 | 1.6 | 3.2 | 0.00 | 0.00 | 0.00 | 88 | 1006.7 |
| 20260505030657 | 7 | 113 | 1.6 | 3.2 | 0.00 | 0.00 | 0.00 | 88 | 1006.9 |
| 20260505030623 | 6 | 292 | 0.0 | 0.0 | 0.00 | 0.00 | 0.00 | 91 | 1008.9 |
| 20260505030153 | 7 | 109 | 3.2 | 3.2 | 0.00 | 0.00 | 0.00 | 87 | 1007.1 |
| 20260505025722 | 6 | 292 | 0.0 | 0.0 | 0.00 | 0.00 | 0.00 | 91 | 1008.9 |
| 20260505025649 | 7 | 91 | 1.6 | 3.2 | 0.00 | 0.00 | 0.00 | 88 | 1007.0 |
| 20260505025148 | 7 | 93 | 3.2 | 3.2 | 0.00 | 0.00 | 0.00 | 89 | 1006.8 |
| 20260505024723 | 7 | 292 | 0.0 | 0.0 | 0.00 | 0.00 | 0.00 | 91 | 1008.9 |
| 20260505024645 | 7 | 80 | 3.2 | 3.2 | 0.00 | 0.00 | 0.00 | 89 | 1006.9 |
| 20260505024142 | 7 | 74 | 1.6 | 3.2 | 0.00 | 0.00 | 0.00 | 89 | 1006.9 |
| 20260505023723 | 7 | 292 | 0.0 | 0.0 | 0.00 | 0.00 | 0.00 | 91 | 1008.9 |
| 20260505023639 | 7 | 83 | 3.2 | 3.2 | 0.00 | 0.00 | 0.00 | 89 | 1007.1 |
| 20260505023137 | 7 | 82 | 3.2 | 3.2 | 0.00 | 0.00 | 0.00 | 88 | 1007.3 |
| 20260505022634 | 8 | 73 | 1.6 | 3.2 | 0.00 | 0.00 | 0.00 | 88 | 1007.0 |
| 20260505022131 | 8 | 78 | 1.6 | 3.2 | 0.00 | 0.00 | 0.00 | 87 | 1007.2 |
| 20260505021627 | 8 | 84 | 1.6 | 3.2 | 0.00 | 0.00 | 0.00 | 87 | 1007.1 |
| 20260505021124 | 8 | 110 | 1.6 | 1.6 | 0.00 | 0.00 | 0.00 | 86 | 1007.0 |
| 20260505020825 | 8 | 292 | 0.0 | 0.0 | 0.00 | 0.00 | 0.00 | 90 | 1008.9 |
| 20260505020620 | 8 | 59 | 0.0 | 0.0 | 0.00 | 0.00 | 0.00 | 85 | 1007.3 |
| 20260505020116 | 8 | 137 | 1.6 | 3.2 | 0.00 | 0.00 | 0.00 | 85 | 1007.1 |
| 20260505015923 | 8 | 292 | 0.0 | 0.0 | 0.00 | 0.00 | 0.00 | 90 | 1008.9 |
| 20260505015824 | 7 | 292 | 0.0 | 0.0 | 0.00 | 0.00 | 0.00 | 89 | 1008.9 |
| 20260505015613 | 8 | 153 | 3.2 | 3.2 | 0.00 | 0.00 | 0.00 | 86 | 1007.2 |
| 20260505015110 | 9 | 135 | 0.0 | 0.0 | 0.00 | 0.00 | 0.00 | 84 | 1007.0 |
| 20260505014823 | 8 | 292 | 0.0 | 0.0 | 0.00 | 0.00 | 0.00 | 90 | 1008.9 |
| 20260505014607 | 9 | 89 | 1.6 | 3.2 | 0.00 | 0.00 | 0.00 | 84 | 1007.2 |
| 20260505014104 | 9 | 96 | 1.6 | 3.2 | 0.00 | 0.00 | 0.00 | 84 | 1007.0 |
| 20260505013921 | 8 | 292 | 0.0 | 0.0 | 0.00 | 0.00 | 0.00 | 90 | 1009.0 |
| 20260505013601 | 9 | 26 | 3.2 | 3.2 | 0.00 | 0.00 | 0.00 | 83 | 1007.1 |
| 20260505013058 | 10 | 113 | 0.0 | 3.2 | 0.00 | 0.00 | 0.00 | 81 | 1006.9 |
| 20260505012556 | 9 | 78 | 3.2 | 3.2 | 0.00 | 0.00 | 0.00 | 81 | 1006.6 |
| 20260505012053 | 9 | 102 | 1.6 | 3.2 | 0.00 | 0.00 | 0.00 | 82 | 1007.0 |
| 20260505011924 | 8 | 292 | 0.0 | 0.0 | 0.00 | 0.00 | 0.00 | 89 | 1008.9 |
| 20260505011548 | 9 | 72 | 3.2 | 3.2 | 0.00 | 0.00 | 0.00 | 82 | 1006.7 |
| 20260505011046 | 9 | 80 | 3.2 | 3.2 | 0.00 | 0.00 | 0.00 | 83 | 1006.9 |
| 20260505010922 | 8 | 292 | 0.0 | 0.0 | 0.00 | 0.00 | 0.00 | 88 | 1008.9 |
| 20260505010541 | 9 | 93 | 0.0 | 3.2 | 0.00 | 0.00 | 0.00 | 82 | 1006.8 |
| 20260505010038 | 10 | 119 | 0.0 | 3.2 | 0.00 | 0.00 | 0.00 | 82 | 1006.7 |
| 20260505005923 | 9 | 292 | 0.0 | 0.0 | 0.00 | 0.00 | 0.00 | 86 | 1008.8 |
| 20260505005534 | 10 | 91 | 0.0 | 1.6 | 0.00 | 0.00 | 0.00 | 82 | 1006.7 |
| 20260505005032 | 10 | 144 | 0.0 | 3.2 | 0.00 | 0.00 | 0.00 | 80 | 1006.7 |
| 20260505004923 | 9 | 292 | 0.0 | 0.0 | 0.00 | 0.00 | 0.00 | 86 | 1008.6 |
| 20260505004529 | 10 | 150 | 3.2 | 3.2 | 0.00 | 0.00 | 0.00 | 76 | 1006.6 |
| 20260505004026 | 11 | 80 | 0.0 | 3.2 | 0.00 | 0.00 | 0.00 | 76 | 1006.3 |
| 20260505003922 | 10 | 292 | 0.0 | 0.0 | 0.00 | 0.00 | 0.00 | 85 | 1008.2 |
| 20260505003523 | 11 | 77 | 1.6 | 1.6 | 0.00 | 0.00 | 0.00 | 76 | 1006.1 |
| 20260505003020 | 11 | 66 | 0.0 | 1.6 | 0.00 | 0.00 | 0.00 | 74 | 1006.1 |
| 20260505002923 | 10 | 292 | 0.0 | 0.0 | 0.00 | 0.00 | 0.00 | 84 | 1008.2 |
| 20260505002515 | 11 | 89 | 0.0 | 3.2 | 0.00 | 0.00 | 0.00 | 73 | 1006.1 |
| 20260505002014 | 11 | 93 | 3.2 | 3.2 | 0.00 | 0.00 | 0.00 | 71 | 1006.0 |
| 20260505001511 | 11 | 104 | 3.2 | 3.2 | 0.00 | 0.00 | 0.00 | 71 | 1006.1 |
| 20260505001023 | 10 | 292 | 0.0 | 0.0 | 0.00 | 0.00 | 0.00 | 79 | 1007.9 |
| 20260505001008 | 11 | 100 | 1.6 | 3.2 | 0.00 | 0.00 | 0.00 | 71 | 1005.8 |
| 20260505000923 | 10 | 292 | 0.0 | 0.0 | 0.00 | 0.00 | 0.00 | 78 | 1007.9 |
| 20260505000822 | 11 | 292 | 0.0 | 0.0 | 0.00 | 0.00 | 0.00 | 78 | 1007.9 |
| 20260505000506 | 12 | 103 | 0.0 | 1.6 | 0.00 | 0.00 | 0.00 | 71 | 1005.7 |
| 20260505000003 | 12 | 89 | 1.6 | 3.2 | 0.00 | 0.00 | 0.00 | 69 | 1005.8 |
| 20260504235823 | 11 | 292 | 0.0 | 0.0 | 0.00 | 0.00 | 0.00 | 78 | 1007.9 |
| 20260504235500 | 12 | 99 | 1.6 | 3.2 | 0.00 | 0.00 | 0.00 | 69 | 1005.8 |
| 20260504234956 | 12 | 87 | 1.6 | 3.2 | 0.00 | 0.00 | 0.00 | 70 | 1005.8 |
| 20260504234823 | 12 | 292 | 0.0 | 0.0 | 0.00 | 0.00 | 0.00 | 78 | 1007.9 |
| 20260504234453 | 12 | 92 | 3.2 | 3.2 | 0.00 | 0.00 | 0.00 | 68 | 1005.9 |
| 20260504233950 | 12 | 88 | 3.2 | 3.2 | 0.00 | 0.00 | 0.00 | 69 | 1005.6 |
| 20260504233923 | 12 | 292 | 0.0 | 0.0 | 0.00 | 0.00 | 0.00 | 74 | 1007.9 |
| 20260504233445 | 13 | 101 | 1.6 | 1.6 | 0.00 | 0.00 | 0.00 | 68 | 1005.6 |
| 20260504233021 | 13 | 292 | 0.0 | 0.0 | 0.00 | 0.00 | 0.00 | 69 | 1007.6 |
| 20260504232943 | 13 | 84 | 1.6 | 3.2 | 0.00 | 0.00 | 0.00 | 67 | 1005.7 |
| 20260504232440 | 13 | 111 | 0.0 | 1.6 | 0.00 | 0.00 | 0.00 | 67 | 1005.6 |
| 20260504232023 | 13 | 292 | 0.0 | 0.0 | 0.00 | 0.00 | 0.00 | 66 | 1007.5 |
| 20260504231937 | 13 | 107 | 0.0 | 1.6 | 0.00 | 0.00 | 0.00 | 65 | 1005.5 |
| 20260504231433 | 14 | 89 | 0.0 | 3.2 | 0.00 | 0.00 | 0.00 | 64 | 1005.4 |
| 20260504231023 | 15 | 292 | 0.0 | 0.0 | 0.00 | 0.00 | 0.00 | 63 | 1007.5 |
| 20260504230929 | 15 | 89 | 0.0 | 1.6 | 0.00 | 0.00 | 0.00 | 63 | 1005.3 |
| 20260504230426 | 15 | 118 | 0.0 | 0.0 | 0.00 | 0.00 | 0.00 | 62 | 1005.3 |
| 20260504230122 | 15 | 292 | 0.0 | 0.0 | 0.00 | 0.00 | 0.00 | 59 | 1007.3 |
| 20260504225926 | 15 | 77 | 0.0 | 0.0 | 0.00 | 0.00 | 0.00 | 60 | 1005.2 |
| 20260504225422 | 16 | 84 | 0.0 | 0.0 | 0.00 | 0.00 | 0.00 | 54 | 1005.4 |
| 20260504224919 | 16 | 0 | 0.0 | 1.6 | 0.00 | 0.00 | 0.00 | 54 | 1005.3 |
| 20260504224415 | 16 | 249 | 0.0 | 4.8 | 0.00 | 0.00 | 0.00 | 53 | 1005.2 |
| 20260504224221 | 16 | 294 | 1.6 | 8.0 | 0.00 | 0.00 | 0.00 | 55 | 1007.2 |
| 20260504223913 | 16 | 354 | 1.6 | 3.2 | 0.00 | 0.00 | 0.00 | 53 | 1005.2 |
| 20260504223408 | 16 | 10 | 3.2 | 3.2 | 0.00 | 0.00 | 0.00 | 52 | 1005.1 |
| 20260504223224 | 16 | 270 | 0.0 | 0.0 | 0.00 | 0.00 | 0.00 | 54 | 1007.2 |
| 20260504222904 | 16 | 308 | 3.2 | 3.2 | 0.00 | 0.00 | 0.00 | 50 | 1005.1 |
| 20260504222402 | 16 | 288 | 0.0 | 8.0 | 0.00 | 0.00 | 0.00 | 49 | 1004.9 |
| 20260504222223 | 16 | 292 | 0.0 | 1.6 | 0.00 | 0.00 | 0.00 | 54 | 1007.2 |
| 20260504221900 | 16 | 249 | 3.2 | 6.4 | 0.00 | 0.00 | 0.00 | 51 | 1005.1 |
| 20260504221356 | 16 | 315 | 3.2 | 19.3 | 0.00 | 0.00 | 0.00 | 49 | 1005.0 |
| 20260504221321 | 16 | 318 | 1.6 | 8.0 | 0.00 | 0.00 | 0.00 | 54 | 1007.1 |
| 20260504220854 | 17 | 243 | 4.8 | 6.4 | 0.00 | 0.00 | 0.00 | 49 | 1005.0 |
| 20260504220350 | 17 | 281 | 4.8 | 11.3 | 0.00 | 0.00 | 0.00 | 48 | 1005.2 |
| 20260504215847 | 17 | 272 | 3.2 | 4.8 | 0.00 | 0.00 | 0.00 | 51 | 1005.0 |
| 20260504215344 | 16 | 335 | 0.0 | 8.0 | 0.00 | 0.00 | 0.00 | 50 | 1005.0 |
| 20260504215324 | 16 | 294 | 1.6 | 6.4 | 0.00 | 0.00 | 0.00 | 54 | 1007.2 |
| 20260504214840 | 16 | 267 | 3.2 | 6.4 | 0.00 | 0.00 | 0.00 | 50 | 1005.1 |
| 20260504214337 | 16 | 236 | 3.2 | 6.4 | 0.00 | 0.00 | 0.00 | 50 | 1005.1 |
| 20260504214321 | 16 | 302 | 4.8 | 14.5 | 0.00 | 0.00 | 0.00 | 54 | 1007.2 |
| 20260504213833 | 16 | 280 | 1.6 | 6.4 | 0.00 | 0.00 | 0.00 | 50 | 1005.0 |
| 20260504213329 | 16 | 295 | 8.0 | 8.0 | 0.00 | 0.00 | 0.00 | 49 | 1005.1 |
| 20260504212827 | 17 | 345 | 6.4 | 14.5 | 0.00 | 0.00 | 0.00 | 48 | 1005.0 |
| 20260504212323 | 17 | 241 | 11.3 | 17.7 | 0.00 | 0.00 | 0.00 | 47 | 1004.9 |
| 20260504211821 | 17 | 245 | 11.3 | 12.9 | 0.00 | 0.00 | 0.00 | 47 | 1004.8 |
| 20260504211316 | 17 | 305 | 4.8 | 11.3 | 0.00 | 0.00 | 0.00 | 48 | 1004.6 |
| 20260504210814 | 18 | 225 | 9.7 | 9.7 | 0.00 | 0.00 | 0.00 | 45 | 1004.7 |
| 20260504210521 | 16 | 325 | 6.4 | 12.9 | 0.00 | 0.00 | 0.00 | 55 | 1006.8 |
| 20260504210422 | 16 | 321 | 4.8 | 9.7 | 0.00 | 0.00 | 0.00 | 55 | 1006.6 |
| 20260504210311 | 17 | 306 | 4.8 | 25.7 | 0.00 | 0.00 | 0.00 | 48 | 1004.6 |
| 20260504205809 | 17 | 257 | 3.2 | 20.9 | 0.00 | 0.00 | 0.00 | 47 | 1004.8 |
| 20260504205521 | 16 | 257 | 3.2 | 11.3 | 0.00 | 0.00 | 0.00 | 54 | 1006.5 |
| 20260504205306 | 17 | 301 | 12.9 | 19.3 | 0.00 | 0.00 | 0.00 | 49 | 1004.7 |
| 20260504204804 | 17 | 335 | 3.2 | 16.1 | 0.00 | 0.00 | 0.00 | 50 | 1004.8 |
| 20260504204523 | 16 | 302 | 8.0 | 14.5 | 0.00 | 0.00 | 0.00 | 54 | 1006.5 |
| 20260504204302 | 17 | 336 | 6.4 | 9.7 | 0.00 | 0.00 | 0.00 | 50 | 1004.6 |
| 20260504203801 | 17 | 321 | 8.0 | 16.1 | 0.00 | 0.00 | 0.00 | 51 | 1004.7 |
| 20260504203524 | 17 | 264 | 3.2 | 6.4 | 0.00 | 0.00 | 0.00 | 54 | 1006.7 |
| 20260504203258 | 17 | 318 | 4.8 | 14.5 | 0.00 | 0.00 | 0.00 | 48 | 1004.6 |
| 20260504202758 | 17 | 296 | 6.4 | 16.1 | 0.00 | 0.00 | 0.00 | 50 | 1004.5 |
| 20260504202256 | 17 | 249 | 6.4 | 6.4 | 0.00 | 0.00 | 0.00 | 48 | 1004.6 |
| 20260504201753 | 16 | 340 | 3.2 | 14.5 | 0.00 | 0.00 | 0.00 | 51 | 1004.6 |
| 20260504201525 | 16 | 215 | 1.6 | 6.4 | 0.00 | 0.00 | 0.00 | 54 | 1006.8 |
| 20260504201250 | 16 | 273 | 12.9 | 19.3 | 0.00 | 0.00 | 0.00 | 52 | 1004.6 |
| 20260504200748 | 16 | 272 | 16.1 | 24.1 | 0.00 | 0.00 | 0.00 | 51 | 1004.6 |
| 20260504200622 | 17 | 302 | 6.4 | 16.1 | 0.00 | 0.00 | 0.00 | 55 | 1006.5 |
| 20260504200243 | 16 | 264 | 8.0 | 11.3 | 0.00 | 0.00 | 0.00 | 53 | 1004.4 |
| 20260504195740 | 17 | 254 | 9.7 | 19.3 | 0.00 | 0.00 | 0.00 | 49 | 1004.4 |
| 20260504195623 | 16 | 212 | 3.2 | 11.3 | 0.00 | 0.03 | 0.00 | 55 | 1006.5 |
| 20260504195236 | 17 | 232 | 11.3 | 22.5 | 0.00 | 0.00 | 0.00 | 49 | 1004.4 |
| 20260504194733 | 17 | 295 | 6.4 | 9.7 | 0.00 | 0.00 | 0.00 | 48 | 1004.4 |
| 20260504194722 | 17 | 315 | 4.8 | 11.3 | 0.00 | 0.03 | 0.00 | 55 | 1006.2 |
| 20260504194229 | 17 | 238 | 16.1 | 24.1 | 0.00 | 0.00 | 0.00 | 51 | 1004.4 |
| 20260504193726 | 16 | 229 | 6.4 | 22.5 | 0.00 | 0.00 | 0.00 | 51 | 1004.3 |
| 20260504193722 | 17 | 352 | 6.4 | 20.9 | 0.00 | 0.03 | 0.00 | 58 | 1006.4 |
| 20260504193223 | 16 | 301 | 14.5 | 20.9 | 0.00 | 0.00 | 0.00 | 52 | 1004.3 |
| 20260504192722 | 16 | 267 | 6.4 | 17.7 | 0.00 | 0.03 | 0.00 | 59 | 1006.5 |
| 20260504192219 | 16 | 259 | 12.9 | 14.5 | 0.00 | 0.00 | 0.00 | 56 | 1004.4 |
| 20260504191723 | 16 | 198 | 3.2 | 6.4 | 0.00 | 0.03 | 0.00 | 58 | 1006.3 |
| 20260504191718 | 16 | 256 | 9.7 | 29.0 | 0.00 | 0.00 | 0.00 | 55 | 1004.5 |
| 20260504191214 | 16 | 288 | 9.7 | 33.8 | 0.00 | 0.00 | 0.00 | 57 | 1004.3 |
| 20260504190723 | 15 | 317 | 4.8 | 9.7 | 0.00 | 0.03 | 0.00 | 62 | 1006.3 |
| 20260504190709 | 16 | 278 | 9.7 | 16.1 | 0.00 | 0.00 | 0.00 | 57 | 1004.5 |
| 20260504190206 | 16 | 272 | 8.0 | 20.9 | 0.00 | 0.00 | 0.00 | 57 | 1004.5 |
| 20260504185821 | 15 | 322 | 3.2 | 8.0 | 0.00 | 0.05 | 0.00 | 66 | 1006.6 |
| 20260504185703 | 16 | 220 | 12.9 | 17.7 | 0.00 | 0.00 | 0.00 | 57 | 1004.7 |
| 20260504185159 | 15 | 244 | 11.3 | 19.3 | 0.00 | 0.00 | 0.00 | 59 | 1004.7 |
| 20260504184655 | 14 | 53 | 3.2 | 11.3 | 0.00 | 0.00 | 0.00 | 64 | 1004.9 |